Showing default

CARTOSAT 3, 44804

Orbit data source: Space-Track

CARTOSAT 3, 44804 is a payload satellite owned by ISRO (IN) in SSO that was launched on Wed, 27 Nov 2019 UTC via a PSLV-XL launch vehicle from the Sirharikota (SRI). Payload-class satellites include a variety of spacecraft equipped with specific instruments for various scientific and technological missions. These include communications satellites like Starlink; space stations such as the ISS; scientific satellites like the Hubble; Earth observation satellites from companies like Planet Labs, Umbra, and HawkEye 360; GPS; miniature CubeSats for education and research; and military/defense satellites.

Loading next visibility...
Identifier
44804, 2019-081A
Orbit
SSO
Country
Flag of ININ / IND
Related business
Manufacturer
ISRO
Mission
Operational Defense Imaging
Bus & Motor
IRS-2, AOCS
Mass
1,625 kg wet, ~1,500 kg dry
Launch date (UTC)
2019-11-27 (7 years ago)
Launch vehicle
PSLV-XL
Launch site
Sirharikota (SRI)
Object type
Payload
Rocket body
Debris
Shape & HBR
Hex Cyl + 2 Pan, 2.0 m
Radar Cross Section
9.780 m², Large (>1 m²)

Expand to show TLE details & history
Last TLE update: 4 hours ago

TLE from 4 hours ago
0 CARTOSAT 3
1 44804U 19081A   26254.83364223  .00002685  00000-0  13067-3 0  9990
2 44804  97.4226 315.2642 0010655 206.1811 153.8886 15.19199070376626
Epoch: 2026-09-11T20:00Z
TLE epoch observation values (Epoch: 2026-09-11T20:00:26.688Z)
Latitude
-0.00006°
Longitude
24.30169°
Altitude
517.94 km
Speed
7.601 km/s
True Right ascension
21h 01m 03s
True Declination
0° 00' 00"
Sunlit
Object was in full shadow at epoch
Visualization orbit readout
Latitude
Unknown
Longitude
Unknown
Altitude
Unknown
Speed
Unknown
Apparent Right ascension
Unknown
Apparent Declination
Unknown
Sunlit
N/A
Visualization observer readout
Local Sidereal Time
16:29:56
Azimuth
Unknown
Elevation
Unknown
Doppler factor
Unknown
Orbital elements
Apogee altitude
512.562 km
Perigee altitude
497.893 km
Semi-major axis
6,883.365 km
Eccentricity
0.00107
Inclination
97.4226°
RAAN
315.2642°
Arg. of periapsis
206.1811°
True anomaly
153.94227°
Mean anomaly
153.8886°
Eccentric anomaly
153.91544°
Mean motion
3.80051 °/min
Orbital period
94.72 mins
BSTAR
0.00013067
Loading maneuver chart data...
Computing Atmospheric mass density...
Loading historical data...
Loading historical data...
Loading historical data...
Loading historical data...
Loading historical data...
Loading historical data...
Loading historical data...

Documentation

Showing up to 5 results
|